When you browse on this site, cookies collect data to enhance your experience and personalize the content and advertising you see.
Visit our Privacy Policy to learn more. By continuing to use the site, you agree to this use of cookies and data.
  • In Austria
  • List of Countries
  • For 7 days
  • Water Temperature
  • Satellite Maps
  • Weather Map
  • News
  • Weather Widgets
  • user-avatar
    Login

    Hourly Weather Asadabad

    Today, 21 April, Sunday

    Time Temperature Precipitation Wind Pressure Humidity
    00:00 +18°C° 0 mm 2 mps 656 mmHg 49%
    01:00 +17°C° 0 mm 2 mps 656 mmHg 47%
    02:00 +17°C° 0 mm 2 mps 656 mmHg 46%
    03:00 +17°C° 0 mm 2 mps 656 mmHg 46%
    04:00 +16°C° 0 mm 2 mps 656 mmHg 45%
    05:00 +16°C° 0 mm 2 mps 655 mmHg 43%
    06:00 +18°C° 0 mm 2 mps 656 mmHg 40%
    07:00 +21°C° 0 mm 1 mps 656 mmHg 37%
    08:00 +22°C° 0 mm 1 mps 657 mmHg 33%
    09:00 +24°C° 0 mm 1 mps 657 mmHg 31%
    10:00 +25°C° 0 mm 1 mps 657 mmHg 30%
    11:00 +26°C° 0 mm 1 mps 657 mmHg 28%
    12:00 +26°C° 0 mm 2 mps 657 mmHg 28%
    13:00 +27°C° 0 mm 2 mps 657 mmHg 28%
    14:00 +28°C° 0 mm 2 mps 657 mmHg 28%
    15:00 +27°C° 0 mm 2 mps 657 mmHg 29%
    16:00 +27°C° 0 mm 2 mps 657 mmHg 29%
    17:00 +27°C° 0 mm 2 mps 657 mmHg 30%
    18:00 +25°C° 0.1 mm 1 mps 657 mmHg 37%
    19:00 +23°C° 0.1 mm 1 mps 656 mmHg 44%
    20:00 +19°C° 0.1 mm 0 mps 656 mmHg 51%
    21:00 +21°C° 0 mm 1 mps 657 mmHg 49%
    22:00 +20°C° 0 mm 2 mps 657 mmHg 46%
    23:00 +20°C° 0 mm 2 mps 657 mmHg 44%

    Tomorrow, 22 April, Monday

    Time Temperature Precipitation Wind Pressure Humidity
    00:00 +19°C° 0 mm 3 mps 657 mmHg 43%
    01:00 +19°C° 0 mm 3 mps 657 mmHg 43%
    02:00 +19°C° 0 mm 3 mps 657 mmHg 43%
    03:00 +18°C° 0 mm 3 mps 656 mmHg 42%
    04:00 +18°C° 0 mm 3 mps 656 mmHg 42%
    05:00 +17°C° 0 mm 3 mps 656 mmHg 42%
    06:00 +19°C° 0 mm 2 mps 657 mmHg 38%
    07:00 +21°C° 0 mm 2 mps 657 mmHg 34%
    08:00 +24°C° 0 mm 2 mps 658 mmHg 31%
    09:00 +25°C° 0 mm 2 mps 658 mmHg 29%
    10:00 +26°C° 0 mm 2 mps 658 mmHg 27%
    11:00 +27°C° 0 mm 1 mps 659 mmHg 26%
    12:00 +28°C° 0 mm 2 mps 659 mmHg 26%
    13:00 +28°C° 0 mm 2 mps 659 mmHg 26%
    14:00 +29°C° 0 mm 2 mps 659 mmHg 26%
    15:00 +29°C° 0 mm 2 mps 658 mmHg 26%
    16:00 +29°C° 0 mm 2 mps 658 mmHg 26%
    17:00 +29°C° 0 mm 2 mps 658 mmHg 26%
    18:00 +27°C° 0.1 mm 2 mps 658 mmHg 33%
    19:00 +24°C° 0.1 mm 1 mps 658 mmHg 40%
    20:00 +22°C° 0.1 mm 1 mps 658 mmHg 47%
    21:00 +22°C° 0 mm 1 mps 658 mmHg 45%
    22:00 +21°C° 0 mm 2 mps 658 mmHg 43%
    23:00 +21°C° 0 mm 3 mps 659 mmHg 42%

    Day after tomorrow, 23 April, Tuesday

    Time Temperature Precipitation Wind Pressure Humidity
    00:00 +20°C° 0.1 mm 3 mps 659 mmHg 41%
    01:00 +20°C° 0.1 mm 3 mps 658 mmHg 40%
    02:00 +19°C° 0.1 mm 3 mps 658 mmHg 40%
    03:00 +19°C° 0 mm 3 mps 658 mmHg 39%
    04:00 +19°C° 0 mm 3 mps 658 mmHg 37%
    05:00 +19°C° 0 mm 3 mps 657 mmHg 36%
    06:00 +20°C° 0 mm 3 mps 658 mmHg 33%
    07:00 +23°C° 0 mm 2 mps 659 mmHg 31%
    08:00 +25°C° 0 mm 2 mps 659 mmHg 28%
    09:00 +26°C° 0 mm 2 mps 660 mmHg 26%
    10:00 +27°C° 0 mm 2 mps 660 mmHg 25%
    11:00 +29°C° 0 mm 1 mps 660 mmHg 23%
    12:00 +29°C° 0 mm 2 mps 660 mmHg 24%
    13:00 +30°C° 0 mm 3 mps 660 mmHg 24%
    14:00 +30°C° 0 mm 3 mps 660 mmHg 25%
    15:00 +29°C° 0 mm 3 mps 659 mmHg 27%
    16:00 +29°C° 0 mm 2 mps 659 mmHg 29%
    17:00 +28°C° 0 mm 1 mps 659 mmHg 30%
    18:00 +27°C° 0.1 mm 1 mps 659 mmHg 34%
    19:00 +25°C° 0.1 mm 2 mps 659 mmHg 38%
    20:00 +24°C° 0.1 mm 2 mps 659 mmHg 42%
    21:00 +24°C° 0.1 mm 2 mps 659 mmHg 44%
    22:00 +22°C° 0.1 mm 3 mps 659 mmHg 47%
    23:00 +21°C° 0.1 mm 3 mps 659 mmHg 49%

    24 April, Wednesday

    Time Temperature Precipitation Wind Pressure Humidity
    00:00 +20°C° 0.2 mm 3 mps 659 mmHg 51%
    01:00 +20°C° 0.2 mm 3 mps 658 mmHg 53%
    02:00 +19°C° 0.2 mm 3 mps 658 mmHg 55%
    03:00 +19°C° 0.2 mm 3 mps 658 mmHg 56%
    04:00 +19°C° 0.2 mm 3 mps 657 mmHg 56%
    05:00 +19°C° 0.2 mm 3 mps 657 mmHg 57%
    06:00 +20°C° 0.1 mm 3 mps 658 mmHg 55%
    07:00 +21°C° 0.1 mm 3 mps 658 mmHg 53%
    08:00 +21°C° 0.1 mm 2 mps 659 mmHg 51%
    09:00 +23°C° 0.2 mm 2 mps 659 mmHg 48%
    10:00 +24°C° 0.2 mm 2 mps 659 mmHg 45%
    11:00 +24°C° 0.2 mm 2 mps 660 mmHg 42%
    12:00 +23°C° 1.5 mm 2 mps 659 mmHg 49%
    13:00 +21°C° 1.5 mm 2 mps 658 mmHg 57%
    14:00 +19°C° 1.5 mm 2 mps 658 mmHg 64%
    15:00 +19°C° 1.7 mm 3 mps 658 mmHg 65%
    16:00 +19°C° 1.7 mm 3 mps 658 mmHg 65%
    17:00 +19°C° 1.7 mm 3 mps 657 mmHg 66%
    18:00 +18°C° 0.1 mm 3 mps 658 mmHg 68%
    19:00 +18°C° 0.1 mm 3 mps 658 mmHg 69%
    20:00 +17°C° 0.1 mm 3 mps 658 mmHg 71%
    21:00 +18°C° 0.3 mm 3 mps 658 mmHg 69%
    22:00 +18°C° 0.3 mm 3 mps 658 mmHg 67%
    23:00 +18°C° 0.3 mm 3 mps 658 mmHg 65%

    25 April, Thursday

    Time Temperature Precipitation Wind Pressure Humidity
    00:00 +17°C° 0.4 mm 3 mps 658 mmHg 65%
    01:00 +17°C° 0.4 mm 3 mps 658 mmHg 65%
    02:00 +17°C° 0.4 mm 2 mps 657 mmHg 66%
    03:00 +17°C° 0.3 mm 2 mps 657 mmHg 66%
    04:00 +16°C° 0.3 mm 3 mps 657 mmHg 65%
    05:00 +16°C° 0.3 mm 3 mps 657 mmHg 65%
    06:00 +18°C° 0.1 mm 2 mps 658 mmHg 61%
    07:00 +19°C° 0.1 mm 2 mps 658 mmHg 56%
    08:00 +21°C° 0.1 mm 2 mps 659 mmHg 52%
    09:00 +23°C° 0.1 mm 2 mps 659 mmHg 48%
    10:00 +24°C° 0.1 mm 2 mps 660 mmHg 44%
    11:00 +25°C° 0.1 mm 2 mps 660 mmHg 40%
    12:00 +26°C° 0.1 mm 2 mps 660 mmHg 38%
    13:00 +26°C° 0.1 mm 2 mps 659 mmHg 36%
    14:00 +27°C° 0.1 mm 3 mps 659 mmHg 34%
    15:00 +27°C° 0.3 mm 2 mps 659 mmHg 35%
    16:00 +26°C° 0.3 mm 2 mps 659 mmHg 35%
    17:00 +26°C° 0.3 mm 2 mps 658 mmHg 35%
    18:00 +25°C° 0.5 mm 2 mps 658 mmHg 40%
    19:00 +23°C° 0.5 mm 2 mps 658 mmHg 44%
    20:00 +21°C° 0.5 mm 2 mps 659 mmHg 48%
    21:00 +20°C° 0.6 mm 3 mps 658 mmHg 51%
    22:00 +19°C° 0.6 mm 3 mps 658 mmHg 55%
    23:00 +18°C° 0.6 mm 4 mps 658 mmHg 58%

    26 April, Friday

    Time Temperature Precipitation Wind Pressure Humidity
    00:00 +17°C° 0.3 mm 4 mps 658 mmHg 57%
    01:00 +17°C° 0.3 mm 4 mps 658 mmHg 57%
    02:00 +16°C° 0.3 mm 3 mps 657 mmHg 56%
    03:00 +16°C° 0.1 mm 3 mps 657 mmHg 55%
    04:00 +16°C° 0.1 mm 3 mps 657 mmHg 54%
    05:00 +16°C° 0.1 mm 3 mps 657 mmHg 53%
    06:00 +17°C° 0.1 mm 3 mps 658 mmHg 50%
    07:00 +19°C° 0.1 mm 3 mps 659 mmHg 46%
    08:00 +21°C° 0.1 mm 3 mps 659 mmHg 42%
    09:00 +23°C° 0.1 mm 2 mps 660 mmHg 40%
    10:00 +24°C° 0.1 mm 2 mps 660 mmHg 38%
    11:00 +25°C° 0.1 mm 2 mps 660 mmHg 36%
    12:00 +26°C° 0.1 mm 2 mps 660 mmHg 35%
    13:00 +26°C° 0.1 mm 3 mps 660 mmHg 33%
    14:00 +27°C° 0.1 mm 3 mps 659 mmHg 32%
    15:00 +26°C° 0.1 mm 3 mps 659 mmHg 33%
    16:00 +26°C° 0.1 mm 3 mps 659 mmHg 33%
    17:00 +26°C° 0.1 mm 3 mps 659 mmHg 34%
    18:00 +24°C° 0.4 mm 3 mps 658 mmHg 40%
    19:00 +23°C° 0.4 mm 2 mps 658 mmHg 45%
    20:00 +20°C° 0.4 mm 2 mps 658 mmHg 51%
    21:00 +19°C° 0.9 mm 2 mps 658 mmHg 54%
    22:00 +18°C° 0.9 mm 3 mps 658 mmHg 57%
    23:00 +17°C° 0.9 mm 4 mps 658 mmHg 60%
    Show more